DELTA 1 R/B, 2096

Orbit data source: Space-Track

DELTA 1 R/B, 2096 is space debris in SSO originally from a launch on Mon, 28 Feb 1966 UTC launched from the Air Force Eastern Test Range (AFETR). Debris objects in space refer to the collection of defunct objects orbiting the Earth. Examples of debris include non-operational satellites, rocket bodies, and fragments generated from explosions, collisions, or faulty payload assembly.

Loading next visibility...
Identifier
2096, 1966-016B
Orbit
SSO
Country
Flag of USUS
Related business
Manufacturer
ABL
Mission
Spacecraft
Bus & Motor
ALTAIR, Unknown motor
Mass
33 kg wet, 33 kg dry
Launch date (UTC)
1966-02-28 (60 years ago)
Launch vehicle
Unknown
Launch site
Air Force Eastern Test Range (AFETR)
Object type
Payload
Rocket body
Debris
Shape & HBR
Unknown
Radar Cross Section
Medium (>0.1 m² and <1 m²)

Expand to show TLE details & history
Last TLE update: 8 hours ago

TLE from 8 hours ago
0 DELTA 1 R/B
1  2096U 66016B   25289.15917720  .00000000  00000-0  21273-3 0  9992
2  2096 100.8940 134.8460 0039753 305.3601 171.2229 12.69983636763094
Epoch: 2025-10-16T03:49Z
TLE epoch observation values (Epoch: 2025-10-16T03:49:12.910Z)
Latitude
61.44822°
Longitude
-106.77329°
Altitude
1,422.864 km
Speed
7.141 km/s
True Right ascension
22h 21m 48s
True Declination
61° 18' 57"
Sunlit
Object was in daylight at epoch
Visualization orbit readout
Latitude
Unknown
Longitude
Unknown
Altitude
Unknown
Speed
Unknown
Apparent Right ascension
Unknown
Apparent Declination
Unknown
Sunlit
N/A
Visualization observer readout
Local Sidereal Time
06:05:41
Azimuth
Unknown
Elevation
Unknown
Doppler factor
Unknown
Orbital elements
Apogee altitude
1,410.317 km
Perigee altitude
1,348.639 km
Semi-major axis
7,757.615 km
Eccentricity
0.00398
Inclination
100.894°
RAAN
134.846°
Arg. of periapsis
305.3601°
True anomaly
171.29207°
Mean anomaly
171.2229°
Eccentric anomaly
171.25752°
Mean motion
3.17651 °/min
Orbital period
113.33 mins
BSTAR
0.00021273
Loading maneuver chart data...
Computing Atmospheric mass density...
Loading historical data...
Loading historical data...
Loading historical data...
Loading historical data...
Loading historical data...
Loading historical data...
Loading historical data...
Other satellites on launch #16 in the year 1966 (1966-02-28 UTC)

Documentation

Showing up to 5 results
|